Time,TemperatureF,DewpointF,PressureIn,WindDirection,WindDirectionDegrees,WindSpeedMPH,WindSpeedGustMPH,Humidity,HourlyPrecipIn,Conditions,Clouds,dailyrainin,SoftwareType,DateUTC
2013-08-15 07:00:00,63.4,58.4,30.11,North,0,0.0,0.0,84,0.00,,,0.00,WUHU216HW,2013-08-15 11:00:00,
2013-08-15 07:05:00,63.4,58.4,30.11,North,0,0.0,0.0,84,0.00,,,0.00,WUHU216HW,2013-08-15 11:05:00,
2013-08-15 07:30:00,62.6,58.1,30.11,North,0,0.0,0.0,85,0.00,,,0.00,WUHU216HW,2013-08-15 11:30:00,
2013-08-15 07:35:00,62.6,58.1,30.11,North,0,0.0,0.0,85,0.00,,,0.00,WUHU216HW,2013-08-15 11:35:00,
2013-08-15 08:30:00,63.0,58.8,30.10,North,0,0.0,0.0,86,0.00,,,0.00,WUHU216HW,2013-08-15 12:30:00,
2013-08-15 08:35:00,63.0,58.8,30.10,North,0,0.0,0.0,86,0.00,,,0.00,WUHU216HW,2013-08-15 12:35:00,
2013-08-15 09:00:00,63.2,59.0,30.12,North,0,0.0,0.0,86,0.00,,,0.00,WUHU216HW,2013-08-15 13:00:00,
2013-08-15 09:05:00,63.2,59.0,30.12,North,0,0.0,0.0,86,0.00,,,0.00,WUHU216HW,2013-08-15 13:05:00,
2013-08-15 09:30:00,64.1,59.9,30.12,North,0,0.0,0.0,86,0.00,,,0.00,WUHU216HW,2013-08-15 13:30:00,
2013-08-15 09:35:00,64.1,59.9,30.12,North,0,0.0,0.0,86,0.00,,,0.00,WUHU216HW,2013-08-15 13:35:00,
2013-08-15 10:00:00,64.4,60.2,30.12,North,0,0.0,0.0,86,0.00,,,0.00,WUHU216HW,2013-08-15 14:00:00,
2013-08-15 10:05:00,64.4,60.2,30.12,North,0,0.0,0.0,86,0.00,,,0.00,WUHU216HW,2013-08-15 14:05:00,
2013-08-15 10:30:00,64.8,60.6,30.14,North,0,0.0,0.0,86,0.00,,,0.00,WUHU216HW,2013-08-15 14:30:00,
2013-08-15 10:35:00,64.8,60.6,30.14,North,0,0.0,0.0,86,0.00,,,0.00,WUHU216HW,2013-08-15 14:35:00,
2013-08-15 11:00:00,65.7,61.8,30.13,North,0,0.0,0.0,87,0.00,,,0.00,WUHU216HW,2013-08-15 15:00:00,
2013-08-15 11:05:00,65.7,61.8,30.13,North,0,0.0,0.0,87,0.00,,,0.00,WUHU216HW,2013-08-15 15:05:00,
2013-08-15 11:30:00,66.1,61.4,30.13,North,0,0.0,0.0,85,0.00,,,0.00,WUHU216HW,2013-08-15 15:30:00,
2013-08-15 11:35:00,66.1,61.4,30.13,North,0,0.0,0.0,85,0.00,,,0.00,WUHU216HW,2013-08-15 15:35:00,
2013-08-15 12:00:00,66.2,61.6,30.12,North,0,0.0,0.0,85,0.00,,,0.00,WUHU216HW,2013-08-15 16:00:00,
2013-08-15 12:05:00,66.2,61.6,30.12,North,0,0.0,0.0,85,0.00,,,0.00,WUHU216HW,2013-08-15 16:05:00,
2013-08-15 12:30:00,68.0,62.1,30.12,North,0,0.0,0.0,81,0.00,,,0.00,WUHU216HW,2013-08-15 16:30:00,
2013-08-15 12:35:00,68.0,62.1,30.12,North,0,0.0,0.0,81,0.00,,,0.00,WUHU216HW,2013-08-15 16:35:00,
2013-08-15 14:00:00,73.1,64.7,30.10,North,0,0.0,0.0,75,0.00,,,0.00,WUHU216HW,2013-08-15 18:00:00,
2013-08-15 14:05:00,73.3,64.9,30.10,North,0,0.0,0.0,75,0.00,,,0.00,WUHU216HW,2013-08-15 18:05:00,
2013-08-15 14:10:00,73.3,64.9,30.10,North,0,0.0,0.0,75,0.00,,,0.00,WUHU216HW,2013-08-15 18:10:00,
2013-08-15 14:30:00,74.7,64.7,30.09,North,0,0.0,0.0,71,0.00,,,0.00,WUHU216HW,2013-08-15 18:30:00,
2013-08-15 14:35:00,74.7,64.7,30.09,North,0,0.0,0.0,71,0.00,,,0.00,WUHU216HW,2013-08-15 18:35:00,
2013-08-15 15:00:00,76.9,65.1,30.08,North,0,0.0,0.0,67,0.00,,,0.00,WUHU216HW,2013-08-15 19:00:00,
2013-08-15 17:00:00,75.6,63.8,30.05,North,0,0.0,0.0,67,0.00,,,0.00,WUHU216HW,2013-08-15 21:00:00,
2013-08-15 17:05:00,75.6,63.8,30.05,North,0,0.0,0.0,67,0.00,,,0.00,WUHU216HW,2013-08-15 21:05:00,
2013-08-15 17:10:00,75.6,63.8,30.05,North,0,0.0,0.0,67,0.00,,,0.00,WUHU216HW,2013-08-15 21:10:00,
2013-08-15 17:30:00,73.8,63.9,30.06,North,0,0.0,0.0,71,0.00,,,0.00,WUHU216HW,2013-08-15 21:30:00,
2013-08-15 17:36:00,73.8,63.9,30.06,North,0,0.0,0.0,71,0.00,,,0.00,WUHU216HW,2013-08-15 21:36:00,
2013-08-15 18:00:00,72.9,64.2,30.06,North,0,0.0,0.0,74,0.00,,,0.00,WUHU216HW,2013-08-15 22:00:00,
2013-08-15 18:01:00,72.9,64.2,30.06,North,0,0.0,0.0,74,0.00,,,0.00,WUHU216HW,2013-08-15 22:01:00,
2013-08-15 20:30:00,70.0,63.2,30.08,North,0,0.0,0.0,79,0.00,,,0.00,WUHU216HW,2013-08-16 00:30:00,
2013-08-15 20:35:00,70.0,63.2,30.08,North,0,0.0,0.0,79,0.00,,,0.00,WUHU216HW,2013-08-16 00:35:00,
2013-08-15 21:00:00,69.5,63.0,30.09,North,0,0.0,0.0,80,0.00,,,0.00,WUHU216HW,2013-08-16 01:00:00,
2013-08-15 21:05:00,69.5,63.0,30.09,North,0,0.0,0.0,80,0.00,,,0.00,WUHU216HW,2013-08-16 01:05:00,
2013-08-15 21:30:00,68.8,63.1,30.09,North,0,0.0,0.0,82,0.00,,,0.00,WUHU216HW,2013-08-16 01:30:00,
2013-08-15 21:35:00,68.8,63.1,30.09,North,0,0.0,0.0,82,0.00,,,0.00,WUHU216HW,2013-08-16 01:35:00,
2013-08-15 22:30:00,68.9,63.2,30.10,North,0,0.0,0.0,82,0.00,,,0.00,WUHU216HW,2013-08-16 02:30:00,